Terug naar catalogus

ARIANE 44L+3 R/B

ActiefHEO
NORAD 23732·ROCKET BODY·🇫🇷 France

Gelanceerd Dec 6, 1995 vanaf Guiana Space Centre

Loading…

Volgende Passages (komende 24 uur)

TLE

VersSource: Space-Track

Epoch: Sep 14, 2026, 11:40 UTC

1 23732U 95067C   26257.48630258  .00002266  00000-0  11380-2 0  9993
2 23732   7.1546  19.8200 6633824  98.7923 336.0142  3.09913376300869

Volg ARIANE 44L+3 R/B in realtime met AllMySat

Download on the App Store